星链-32447 (STARLINK-32447)

导读 | 星芒AI

STARLINK-32447 是 SpaceX Starlink 低轨卫星互联网项目中的一颗工作卫星,属于第三代星群(v1.5 或 v2 版本)。它运行在约 550 公里的近地轨道,旨在为全球用户提供高速互联网服务。该卫星采用先进的相控阵天线和激光通信技术,具备高带宽和低延迟特性,支持偏远地区的网络接入。作为 Starlink 计划的一部分,STARLINK-32447 与其他数千颗卫星协同工作,构建全球覆盖的卫星通信网络。

基本信息
目录编号:
61261
目录名称:
STARLINK-32447
国际标识:
2024-175U
轨道中心:
EARTH
卫星名称:
星链-32447
卫星全名:
星链-32447 (STARLINK-32447)
卫星状态:
在轨 (已飞行451 天)
发射日期:
2024-09-25 UTC
国别 :
美国 (US)
星等 :
--
轨道信息
数据来源 国际轨道数据
星历时间: 2025-12-19T08:33:22+0800
1天前
查看轨道信息
半长轴: 6853.364km
偏心率: 0.0001316
轨道倾角: 53.160°
近地点辐角 81.520°
升交点赤经 208.693°
平近点角 278.595°
近地点: 474.325km
远地点: 476.129km
周期: 94.106分钟
每日圈数: 15.301961
详细信息
固有亮度:
5
最大亮度:
2.5
卫星平台:
Starlink V1.0
覆盖范围:
全球
运营商:
太空探索技术公司
运营商所在国:
美国
制造商(研发单位):
太空探索技术公司
制造商所在国:
美国
使用方式:
暂无
卫星简介
Starlink 计划是 SpaceX 推出的全球卫星互联网项目,通过发射低轨道卫星,为全球尤其是偏远地区提供高速、低延迟的互联网服务。自 2019 年起,Starlink 已部署数千颗卫星,旨在缩小全球数字鸿沟,推动互联网普及。该项目还为军事、航空等行业提供通信支持,带来广泛经济效益。
2D轨道图
3D轨道图
轨道高度分析图
轨道倾角分析图
轨道综合分析图
查看轨道综合分析图